Powrót do katalogu

STARLINK-37850

AktywnyŁącznośćSSO
NORAD 69426·PAYLOAD·🇺🇸 United States

Wystrzelony Jun 7, 2026 z Vandenberg Space Force Base

Loading…

Następne Przeloty (najbliższe 24 godziny)

TLE

ŚwieżeSource: CelesTrak SupGP

Epoka: Sep 14, 2026, 23:06 UTC

1 69426C 26126G   26257.96298611  .00087931  00000+0  27305-2 0  2571
2 69426  97.2848 119.2632 0001771  97.3156 309.7912 15.33383557    13

Śledź STARLINK-37850 w czasie rzeczywistym z AllMySat

Download on the App Store